FW4251 Weather Reports


Display with metric or nautical units.
time (UTC)temp
F
wind
direction
speed
MPH
gust
MPH
rain 1hr
in
rain 24hr
in
rain mn
in
humidity
%
barometer
mb
20260507094025 45 360 0.0 1.0 0.00 0.00 0.00 89 1009.5
20260507093521 45 360 0.0 1.0 0.00 0.00 0.00 89 1009.6
20260507093020 45 360 0.0 1.0 0.00 0.00 0.00 88 1009.6
20260507092520 46 360 0.0 2.0 0.00 0.00 0.00 88 1009.6
20260507092018 46 360 0.0 2.0 0.00 0.00 0.00 87 1009.4
20260507091523 46 360 0.0 3.0 0.00 0.00 0.00 86 1009.3
20260507091019 46 360 1.0 3.0 0.00 0.00 0.00 86 1009.4
20260507090520 46 360 0.0 1.0 0.00 0.00 0.00 85 1009.5
20260507090016 47 360 0.0 3.0 0.00 0.00 0.00 84 1009.6
20260507085516 48 360 0.0 5.0 0.00 0.00 0.00 82 1009.5
20260507085016 48 360 3.0 6.0 0.00 0.00 0.00 82 1009.5
20260507084519 48 360 2.0 8.0 0.00 0.00 0.00 83 1009.6
20260507084016 48 360 2.0 8.0 0.00 0.00 0.00 85 1009.7
20260507083513 48 360 3.0 9.0 0.00 0.00 0.00 86 1009.9
20260507083013 48 360 4.0 11.0 0.00 0.00 0.00 88 1009.7
20260507082513 48 360 4.0 12.0 0.00 0.00 0.00 90 1009.7
20260507082011 47 360 4.0 10.0 0.00 0.00 0.00 92 1009.8
20260507081510 47 360 5.0 11.0 0.00 0.00 0.00 93 1009.7
20260507081010 47 360 3.0 11.0 0.00 0.00 0.00 93 1009.8
20260507080508 48 360 3.0 8.0 0.00 0.00 0.00 94 1009.8
20260507080007 49 360 1.0 3.0 0.00 0.00 0.00 95 1009.9
20260507075507 49 360 0.0 2.0 0.00 0.00 0.00 95 1010.0
20260507075007 49 360 0.0 2.0 0.00 0.00 0.00 95 1010.0
20260507074507 49 360 0.0 0.0 0.00 0.00 0.00 95 1009.9
20260507074009 49 360 0.0 0.0 0.00 0.00 0.00 95 1010.0
20260507073505 49 360 0.0 0.0 0.00 0.00 0.00 95 1010.1
20260507073005 49 360 0.0 1.0 0.00 0.00 0.00 95 1010.0
20260507072505 49 360 0.0 2.0 0.00 0.00 0.00 95 1010.1
20260507072004 49 360 0.0 2.0 0.00 0.00 0.00 95 1010.2
20260507071504 49 360 0.0 2.0 0.00 0.00 0.00 95 1009.9
20260507071003 49 360 0.0 2.0 0.00 0.00 0.00 95 1009.8
20260507070502 49 360 0.0 2.0 0.00 0.00 0.00 94 1009.7
20260507070002 49 360 0.0 2.0 0.00 0.00 0.00 94 1009.7
20260507065500 49 360 0.0 0.0 0.00 0.00 0.00 94 1009.5
20260507065100 49 360 0.0 1.0 0.00 0.00 0.00 94 1009.4
20260507064600 49 360 0.0 1.0 0.00 0.00 0.00 94 1009.4
20260507064100 49 360 0.0 0.0 0.00 0.00 0.00 94 1009.4
20260507063559 49 360 0.0 1.0 0.00 0.00 0.00 94 1009.2
20260507063101 49 360 0.0 1.0 0.00 0.00 0.00 94 1009.3
20260507062558 49 93 0.0 0.0 0.00 0.00 0.00 94 1009.2
20260507062058 50 360 0.0 0.0 0.00 0.00 0.00 94 1008.8
20260507061557 50 360 0.0 0.0 0.00 0.00 0.00 94 1008.6
20260507061057 50 360 0.0 1.0 0.00 0.00 0.00 94 1008.7
20260507060556 50 360 0.0 1.0 0.00 0.00 0.00 94 1008.7
20260507060059 50 360 0.0 2.0 0.00 0.00 0.00 94 1008.9
20260507055556 50 360 0.0 2.0 0.00 0.00 0.00 94 1008.6
20260507055057 50 360 0.0 2.0 0.00 0.00 0.00 94 1008.8
20260507054555 50 360 0.0 1.0 0.00 0.00 0.00 94 1008.9
20260507054055 50 360 0.0 1.0 0.00 0.00 0.00 94 1008.9
20260507053554 50 360 0.0 0.0 0.00 0.00 0.00 94 1009.1
20260507053107 50 360 0.0 0.0 0.00 0.00 0.00 94 1008.9
20260507052553 50 360 0.0 0.0 0.00 0.00 0.00 94 1009.1
20260507052053 50 360 0.0 0.0 0.00 0.00 0.00 94 1008.8
20260507051554 50 360 0.0 0.0 0.00 0.00 0.00 94 1009.1
20260507051052 50 360 0.0 1.0 0.00 0.00 0.00 93 1009.2
20260507050551 50 360 0.0 2.0 0.00 0.00 0.00 93 1009.2
20260507050051 50 360 0.0 2.0 0.00 0.00 0.00 93 1008.8
20260507045550 50 92 0.0 1.0 0.00 0.00 0.00 93 1009.1
20260507045050 50 360 0.0 1.0 0.00 0.00 0.00 93 1009.6
20260507044559 50 360 0.0 2.0 0.00 0.00 0.00 93 1009.6
20260507044049 50 360 0.0 2.0 0.00 0.00 0.00 93 1009.3
20260507043548 50 360 0.0 2.0 0.00 0.00 0.00 93 1009.6
20260507043049 50 360 0.0 3.0 0.00 0.00 0.00 93 1009.4
20260507042546 51 360 1.0 3.0 0.00 0.00 0.00 93 1009.2
20260507042047 51 360 1.0 2.0 0.00 0.00 0.00 93 1009.4
20260507041550 51 90 1.0 4.0 0.00 0.00 0.00 94 1009.3
20260507041046 51 89 1.0 4.0 0.00 0.00 0.00 93 1009.3
20260507040545 51 88 2.0 4.0 0.00 0.00 0.00 94 1009.3
20260507040046 51 89 1.0 3.0 0.00 0.00 0.00 94 1009.4
20260507035543 51 360 1.0 3.0 0.00 0.00 0.00 94 1009.0
20260507035043 51 90 0.0 2.0 0.00 0.00 0.00 94 1009.4
20260507034546 51 88 0.0 2.0 0.00 0.00 0.00 94 1009.0
20260507034042 51 88 0.0 1.0 0.00 0.00 0.00 94 1009.2
20260507033542 51 88 0.0 3.0 0.00 0.00 0.00 94 1009.0
20260507033055 51 88 0.0 4.0 0.00 0.00 0.00 94 1009.0
20260507032542 51 88 1.0 3.0 0.00 0.00 0.00 93 1009.1
20260507032042 52 88 0.0 3.0 0.00 0.00 0.00 94 1009.0
20260507031554 52 88 1.0 3.0 0.00 0.00 0.00 94 1009.0
20260507031043 52 88 0.0 1.0 0.00 0.00 0.00 94 1009.1
20260507030540 52 87 0.0 1.0 0.00 0.00 0.00 93 1009.3
20260507030101 52 87 0.0 1.0 0.00 0.00 0.00 93 1009.2
20260507025539 52 87 0.0 2.0 0.00 0.00 0.00 93 1009.2
20260507025039 52 87 0.0 2.0 0.00 0.00 0.00 93 1009.3
20260507024601 52 87 0.0 0.0 0.00 0.00 0.00 93 1009.3
20260507024039 52 90 0.0 2.0 0.00 0.00 0.00 93 1009.3
20260507023537 52 90 0.0 2.0 0.00 0.00 0.00 93 1009.2
20260507023038 52 89 0.0 0.0 0.00 0.00 0.00 93 1009.6
20260507022537 52 88 0.0 0.0 0.00 0.00 0.00 93 1009.5
20260507022038 52 88 0.0 0.0 0.00 0.00 0.00 93 1009.6
20260507021540 52 88 0.0 1.0 0.00 0.00 0.00 93 1009.5
20260507021036 52 88 0.0 2.0 0.00 0.00 0.00 93 1009.4
20260507020536 52 87 0.0 3.0 0.00 0.00 0.00 93 1009.3
20260507020042 52 87 0.0 2.0 0.00 0.00 0.00 92 1009.2
20260507015534 52 87 0.0 3.0 0.00 0.00 0.00 92 1009.1
20260507015033 52 87 1.0 3.0 0.00 0.00 0.00 92 1009.2
20260507014542 53 87 0.0 6.0 0.00 0.00 0.00 93 1009.3
20260507014033 53 87 1.0 6.0 0.00 0.00 0.00 92 1009.2
20260507013530 53 71 1.0 4.0 0.00 0.00 0.00 92 1009.1
20260507013036 53 71 1.0 5.0 0.00 0.00 0.00 92 1008.9
20260507012534 53 71 0.0 5.0 0.00 0.00 0.00 92 1009.0
20260507012029 53 91 2.0 9.0 0.00 0.00 0.00 92 1009.0
20260507011534 53 94 2.0 9.0 0.00 0.00 0.00 92 1008.9
20260507011031 53 100 3.0 8.0 0.00 0.00 0.00 92 1008.7
20260507010525 53 75 2.0 4.0 0.00 0.00 0.00 92 1008.7
20260507010029 54 69 2.0 8.0 0.00 0.00 0.00 92 1008.6
20260507005525 54 63 2.0 8.0 0.00 0.00 0.00 92 1008.3
20260507005030 54 27 1.0 6.0 0.00 0.00 0.00 92 1008.2
20260507004520 55 66 2.0 6.0 0.00 0.00 0.00 92 1008.1
20260507004020 55 103 3.0 5.0 0.00 0.00 0.00 91 1008.2
20260507003517 56 80 1.0 4.0 0.00 0.00 0.00 92 1008.2
20260507003017 56 347 2.0 4.0 0.00 0.00 0.00 91 1008.1
20260507002515 57 39 0.0 9.0 0.00 0.00 0.00 91 1007.9
20260507002014 57 39 1.0 9.0 0.00 0.00 0.00 91 1007.7
20260507001519 57 351 1.0 5.0 0.00 0.00 0.00 91 1007.6
20260507001013 57 335 1.0 8.0 0.00 0.00 0.00 91 1007.3
20260507000513 57 342 3.0 9.0 0.00 0.00 0.00 92 1007.0
20260507000013 57 284 3.0 9.0 0.00 0.00 0.00 92 1006.9
20260506235513 57 306 4.0 12.0 0.00 0.00 0.00 93 1006.7
20260506235010 58 304 5.0 12.0 0.00 0.00 0.00 93 1006.7
20260506234509 58 304 6.0 12.0 0.00 0.00 0.00 93 1006.6
20260506234009 59 340 4.0 9.0 0.00 0.00 0.00 94 1006.5
20260506233510 60 254 4.0 9.0 0.00 0.00 0.00 95 1006.3
20260506233008 61 332 1.0 6.0 0.00 0.00 0.00 95 1006.2
20260506232508 61 327 2.0 10.0 0.00 0.00 0.00 95 1006.1
20260506232008 61 152 4.0 10.0 0.00 0.00 0.00 95 1005.9
20260506231507 61 216 3.0 10.0 0.00 0.00 0.00 95 1005.7
20260506231007 61 205 4.0 12.0 0.00 0.00 0.00 95 1005.7
20260506230506 61 213 5.0 12.0 0.00 0.00 0.00 95 1005.7
20260506230007 61 212 5.0 9.0 0.00 0.00 0.00 95 1005.6
20260506225509 61 181 4.0 8.0 0.00 0.00 0.00 95 1005.4
20260506225011 61 219 2.0 9.0 0.00 0.00 0.00 95 1005.4
20260506224506 61 242 4.0 9.0 0.00 0.00 0.00 95 1005.2
20260506224005 61 198 3.0 9.0 0.00 0.00 0.00 95 1005.1
20260506223504 61 171 5.0 10.0 0.00 0.00 0.00 95 1005.0
20260506223007 61 178 4.0 10.0 0.00 0.00 0.00 95 1004.9
20260506222505 61 214 5.0 9.0 0.00 0.00 0.00 95 1004.9
20260506222004 61 212 3.0 9.0 0.00 0.00 0.00 95 1004.9
20260506221504 61 223 4.0 10.0 0.00 0.00 0.00 95 1004.9
20260506221004 61 194 4.0 10.0 0.00 0.00 0.00 95 1004.8
20260506220504 61 185 4.0 10.0 0.00 0.00 0.00 95 1004.9
20260506220004 61 200 3.0 10.0 0.00 0.00 0.00 95 1004.9
20260506215503 61 183 3.0 9.0 0.00 0.00 0.00 95 1004.8
20260506215005 61 224 3.0 9.0 0.00 0.00 0.00 95 1004.8
20260506214504 61 227 3.0 10.0 0.00 0.00 0.00 95 1004.8
20260506214004 61 177 5.0 10.0 0.00 0.00 0.00 95 1004.8
20260506213503 61 199 4.0 9.0 0.00 0.00 0.00 95 1004.6
20260506213002 61 148 5.0 12.0 0.00 0.00 0.00 95 1004.7
20260506212503 62 142 4.0 12.0 0.00 0.00 0.00 95 1004.6
20260506212003 61 192 5.0 11.0 0.00 0.00 0.00 95 1004.7
20260506211502 61 175 3.0 11.0 0.00 0.00 0.00 95 1004.7
20260506211002 61 183 4.0 15.0 0.00 0.00 0.00 95 1004.7
20260506210502 61 222 5.0 15.0 0.00 0.00 0.00 95 1004.7
20260506210005 61 198 6.0 12.0 0.00 0.00 0.00 95 1004.6
20260506205503 61 165 6.0 14.0 0.00 0.00 0.00 95 1004.6
20260506205002 61 196 5.0 14.0 0.00 0.00 0.00 95 1004.6
20260506204501 61 207 5.0 11.0 0.00 0.00 0.00 95 1004.6
20260506204001 61 217 5.0 10.0 0.00 0.00 0.00 95 1004.5
20260506203600 61 207 6.0 15.0 0.00 0.00 0.00 95 1004.6
20260506203059 61 161 6.0 15.0 0.00 0.00 0.00 95 1004.5
20260506202559 61 227 6.0 14.0 0.00 0.00 0.00 95 1004.6
20260506202059 61 238 5.0 16.0 0.00 0.00 0.00 95 1004.6
20260506201558 61 179 6.0 16.0 0.00 0.00 0.00 95 1004.6
20260506201057 61 154 8.0 18.0 0.00 0.00 0.00 95 1004.7
20260506200557 61 147 5.0 14.0 0.00 0.00 0.00 95 1004.7
20260506200157 61 189 4.0 11.0 0.00 0.00 0.00 95 1004.8
20260506195556 61 238 6.0 11.0 0.00 0.00 0.00 95 1004.8
20260506195056 61 181 4.0 10.0 0.00 0.00 0.00 95 1004.8
20260506194556 61 149 4.0 15.0 0.00 0.00 0.00 95 1004.9
20260506194055 61 148 5.0 16.0 0.00 0.00 0.00 95 1005.0
20260506193558 61 169 7.0 16.0 0.00 0.00 0.00 95 1005.0
20260506193053 61 200 6.0 13.0 0.00 0.00 0.00 95 1005.0
20260506192552 61 185 9.0 12.0 0.00 0.00 0.00 95 1005.1
20260506192052 61 215 5.0 13.0 0.00 0.00 0.00 95 1005.1
20260506191551 61 220 7.0 13.0 0.00 0.00 0.00 95 1005.2
20260506191051 61 223 5.0 14.0 0.00 0.00 0.00 95 1005.3
20260506190551 61 186 5.0 8.0 0.00 0.00 0.00 95 1005.2
20260506190054 61 196 3.0 10.0 0.00 0.00 0.00 95 1005.5
20260506185549 61 215 5.0 11.0 0.00 0.00 0.00 95 1005.3
20260506185049 61 192 5.0 11.0 0.00 0.00 0.00 95 1005.4
20260506184552 61 194 4.0 9.0 0.00 0.00 0.00 95 1005.5
20260506184048 61 210 3.0 10.0 0.00 0.00 0.00 95 1005.6
20260506183549 61 153 5.0 12.0 0.00 0.00 0.00 95 1005.6
20260506183147 61 184 5.0 16.0 0.00 0.00 0.00 95 1005.6
20260506182544 61 194 4.0 16.0 0.00 0.00 0.00 94 1005.7
20260506182044 61 255 4.0 17.0 0.00 0.00 0.00 94 1005.8
20260506181544 61 203 4.0 12.0 0.00 0.00 0.00 94 1005.8
20260506181043 61 189 5.0 12.0 0.00 0.00 0.00 94 1005.8
20260506180543 61 200 5.0 11.0 0.00 0.00 0.00 94 1005.8
20260506180046 61 150 4.0 10.0 0.00 0.00 0.00 94 1005.9
20260506175542 61 225 4.0 10.0 0.00 0.00 0.00 94 1006.0
20260506175043 61 205 3.0 11.0 0.00 0.00 0.00 94 1005.8
20260506174541 61 146 4.0 11.0 0.00 0.00 0.00 94 1005.9
20260506174042 62 213 3.0 10.0 0.00 0.00 0.00 94 1005.8
20260506173540 61 171 4.0 7.0 0.00 0.00 0.00 94 1005.9
20260506173109 62 142 4.0 8.0 0.00 0.00 0.00 94 1005.8
20260506172539 62 175 2.0 7.0 0.00 0.00 0.00 95 1005.9
20260506172038 61 219 3.0 7.0 0.00 0.00 0.00 94 1005.9
20260506171538 61 223 3.0 6.0 0.00 0.00 0.00 94 1006.0
20260506171040 61 213 2.0 7.0 0.00 0.00 0.00 94 1006.1
20260506170540 61 236 2.0 11.0 0.00 0.00 0.00 94 1006.0
20260506170040 61 174 3.0 11.0 0.00 0.00 0.00 94 1005.9
20260506165535 62 127 2.0 7.0 0.00 0.00 0.00 94 1006.1
20260506165035 61 153 2.0 6.0 0.00 0.00 0.00 94 1006.4
20260506164535 61 213 1.0 7.0 0.00 0.00 0.00 94 1006.5
20260506164034 61 194 3.0 7.0 0.00 0.00 0.00 94 1006.5
20260506163535 61 199 1.0 5.0 0.00 0.00 0.00 94 1006.5
20260506163037 61 178 1.0 5.0 0.00 0.00 0.00 94 1006.6
20260506162530 61 169 3.0 7.0 0.00 0.00 0.00 94 1006.9
20260506162033 61 184 1.0 5.0 0.00 0.00 0.00 93 1007.0
20260506161530 61 175 0.0 6.0 0.00 0.00 0.00 93 1007.1
20260506161029 61 176 2.0 6.0 0.00 0.00 0.00 93 1007.1
20260506160528 61 176 2.0 4.0 0.00 0.00 0.00 93 1007.1
20260506160028 61 175 1.0 6.0 0.00 0.00 0.00 93 1007.1
20260506155528 61 167 2.0 6.0 0.00 0.00 0.00 93 1007.1
20260506155027 61 173 2.0 5.0 0.00 0.00 0.00 93 1007.1
20260506154527 61 163 1.0 8.0 0.00 0.00 0.00 93 1007.1
20260506154027 61 140 1.0 8.0 0.00 0.00 0.00 92 1007.1
20260506153528 61 202 1.0 5.0 0.00 0.00 0.00 92 1007.3
20260506153026 62 170 2.0 5.0 0.00 0.00 0.00 92 1007.3
20260506152528 62 185 2.0 5.0 0.00 0.00 0.00 92 1007.3
20260506152026 62 205 2.0 5.0 0.00 0.00 0.00 91 1007.3
20260506151527 62 213 1.0 7.0 0.00 0.00 0.00 91 1007.3
20260506151027 62 167 4.0 7.0 0.00 0.00 0.00 90 1007.4
20260506150526 62 202 3.0 8.0 0.00 0.00 0.00 89 1007.3
20260506150024 62 201 3.0 8.0 0.00 0.00 0.00 89 1007.4
20260506145525 62 208 3.0 7.0 0.00 0.00 0.00 89 1007.5
20260506145025 62 215 1.0 7.0 0.00 0.00 0.00 89 1007.3
20260506144529 63 171 2.0 6.0 0.00 0.00 0.00 88 1007.4
20260506144024 63 202 1.0 5.0 0.00 0.00 0.00 88 1007.3
20260506143527 63 202 1.0 6.0 0.00 0.00 0.00 87 1007.5
20260506143026 63 205 2.0 8.0 0.00 0.00 0.00 86 1007.5
20260506142522 63 183 3.0 8.0 0.00 0.00 0.00 86 1007.6
20260506142021 63 184 3.0 8.0 0.00 0.00 0.00 85 1007.6
20260506141523 63 221 3.0 9.0 0.00 0.00 0.00 83 1007.7
20260506141024 64 194 3.0 10.0 0.00 0.00 0.00 81 1007.7
20260506140522 65 186 6.0 10.0 0.00 0.00 0.00 80 1007.6
20260506140022 65 183 6.0 12.0 0.00 0.00 0.00 78 1007.7
20260506135521 65 183 6.0 11.0 0.00 0.00 0.00 78 1007.7
20260506135020 66 186 3.0 14.0 0.00 0.00 0.00 77 1007.6
20260506134521 66 150 3.0 11.0 0.00 0.00 0.00 75 1007.5
20260506134021 67 165 5.0 14.0 0.00 0.00 0.00 74 1007.5
20260506133523 67 213 6.0 14.0 0.00 0.00 0.00 74 1007.4
20260506133019 67 185 5.0 12.0 0.00 0.00 0.00 74 1007.3
20260506132526 68 192 5.0 14.0 0.00 0.00 0.00 74 1007.1
20260506132019 67 188 6.0 10.0 0.00 0.00 0.00 74 1007.1
20260506131529 66 211 2.0 12.0 0.00 0.00 0.00 75 1007.0
20260506131019 66 178 4.0 12.0 0.00 0.00 0.00 74 1007.1
20260506130519 66 201 4.0 12.0 0.00 0.00 0.00 74 1007.0
20260506130019 66 151 4.0 10.0 0.00 0.00 0.00 75 1007.0
20260506125519 66 189 4.0 11.0 0.00 0.00 0.00 76 1007.1
20260506125020 66 205 4.0 11.0 0.00 0.00 0.00 75 1007.3
20260506124517 66 169 2.0 9.0 0.00 0.00 0.00 76 1007.2
20260506124017 66 192 4.0 9.0 0.00 0.00 0.00 75 1007.3
20260506123517 66 196 2.0 9.0 0.00 0.00 0.00 75 1007.2
20260506123017 65 197 4.0 10.0 0.00 0.00 0.00 75 1007.4
20260506122517 65 206 4.0 10.0 0.00 0.00 0.00 75 1007.6
20260506122015 65 190 5.0 10.0 0.00 0.00 0.00 76 1007.5
20260506121515 65 190 3.0 10.0 0.00 0.00 0.00 77 1007.5
20260506121016 65 183 4.0 10.0 0.00 0.00 0.00 76 1007.6
20260506120515 65 112 2.0 8.0 0.00 0.00 0.00 77 1007.7
20260506120019 65 178 4.0 8.0 0.00 0.00 0.00 76 1007.7
20260506115519 65 194 2.0 7.0 0.00 0.00 0.00 76 1007.6
20260506115015 64 196 2.0 7.0 0.00 0.00 0.00 76 1007.8
20260506114516 64 206 4.0 7.0 0.00 0.00 0.00 76 1007.7
20260506114014 64 230 3.0 5.0 0.00 0.00 0.00 76 1007.6
20260506113514 64 144 2.0 7.0 0.00 0.00 0.00 77 1007.5
20260506113014 64 168 3.0 7.0 0.00 0.00 0.00 76 1007.4
20260506112513 64 176 1.0 7.0 0.00 0.00 0.00 76 1007.5
20260506112013 64 215 2.0 7.0 0.00 0.00 0.00 76 1007.4
20260506111513 64 153 2.0 7.0 0.00 0.00 0.00 75 1007.3
20260506111012 64 244 4.0 9.0 0.00 0.00 0.00 75 1007.4
20260506110512 64 152 3.0 9.0 0.00 0.00 0.00 74 1007.4
20260506110012 64 169 3.0 7.0 0.00 0.00 0.00 74 1007.4
20260506105511 63 187 2.0 12.0 0.00 0.00 0.00 74 1007.3
20260506105014 63 168 2.0 7.0 0.00 0.00 0.00 75 1007.3
20260506104511 63 182 2.0 6.0 0.00 0.00 0.00 75 1007.3
20260506104010 63 176 3.0 7.0 0.00 0.00 0.00 75 1007.3
20260506103514 63 218 2.0 6.0 0.00 0.00 0.00 74 1007.3
20260506103010 63 174 3.0 6.0 0.00 0.00 0.00 74 1007.3
20260506102510 63 171 3.0 6.0 0.00 0.00 0.00 74 1007.1
20260506102010 63 198 1.0 7.0 0.00 0.00 0.00 73 1007.0
20260506101521 64 190 1.0 7.0 0.00 0.00 0.00 72 1007.1
20260506101008 64 154 1.0 7.0 0.00 0.00 0.00 72 1007.3
20260506100508 64 194 2.0 6.0 0.00 0.00 0.00 72 1007.2
20260506100008 64 157 2.0 7.0 0.00 0.00 0.00 71 1007.1
20260506095508 64 193 3.0 7.0 0.00 0.00 0.00 71 1007.1
20260506095008 64 190 3.0 8.0 0.00 0.00 0.00 71 1007.2
20260506094519 64 194 2.0 9.0 0.00 0.00 0.00 70 1007.2